星链-34813(STARLINK-34813)

导读

STARLINK-34813是美国SpaceX公司星链(Starlink)卫星互联网星座的一员,于2025年10月26日发射入轨。作为星链大规模组网的最新卫星,它运行在近地轨道,将为全球提供高速低延迟互联网服务,重点覆盖传统基础设施难以抵达的偏远区域,也可支持军事与应急通信,助力星链持续扩展全球网络覆盖能力。

Basic Information
目录编号:
66195
目录名称:
STARLINK-34813
国际标识:
2025-243U
轨道中心:
EARTH
卫星名称:
星链-34813
卫星全名:
星链-34813(STARLINK-34813)
卫星状态:
在轨 (已飞行322 天)
发射日期:
2025-10-26 UTC
国别 :
美国 (US)
星等 :
--
This satellite is enrolled in the Space Conjunction Data Service (SCDS) and the current flight risk assessment level is: High Risk
Orbit Information
数据来源 国际轨道数据
星历时间: 2026-09-13T03:48:17+0800
9小时前
查看轨道信息
半长轴: 6840.825km
偏心率: 0.0000565
轨道倾角: 53.157°
近地点辐角 119.447°
升交点赤经 93.287°
平近点角 240.659°
近地点: 462.301km
远地点: 463.075km
周期: 93.847分钟
每日圈数: 15.344054
Detailed Information
固有亮度:
5
最大亮度:
2.5
卫星平台:
Starlink V1.0
覆盖范围:
全球
运营商:
太空探索技术公司
运营商所在国:
美国
制造商(研发单位):
太空探索技术公司
制造商所在国:
美国
使用方式:
暂无
Satellite Introduction
Starlink 计划是 SpaceX 推出的全球卫星互联网项目,通过发射低轨道卫星,为全球尤其是偏远地区提供高速、低延迟的互联网服务。自 2019 年起,Starlink 已部署数千颗卫星,旨在缩小全球数字鸿沟,推动互联网普及。该项目还为军事、航空等行业提供通信支持,带来广泛经济效益。
2D Orbit Map
3D Orbit Map
Orbit Altitude Analysis Chart
Orbit Inclination Analysis Chart
Orbit Comprehensive Analysis Chart
View Comprehensive Chart
Conjunction Data List
Event ID Objects TCA Miss Dist (km) Collision Risk Probability Collision Risk Index (CRI) Action
CDM_260914-150405-804006-619521
2026-09-14T
15:04:11+0000
0.461 km
远距离
1.685053E-4 高风险 0.8
CDM_260914-163705-804006-619521
2026-09-14T
16:37:59+0000
1.716 km
极远距离
2.859998E-6 低风险 0.44
CDM_260914-133005-804006-619521
2026-09-14T
13:30:23+0000
2.338 km
极远距离
1.34865E-6 低风险 0.38
Miss Distance Evolution Trend with All Objects
Collision Probability Evolution Trend with All Objects